This is the latest recevied weather packets stored in our database for station/object KE8GJZ-2. If no packets are shown the sender has not sent any weather packets the latest 10 day(s).
| Time | Temp. | Humidity | Pressure | Rain* | Wind** | Luminosity | Snow |
|---|---|---|---|---|---|---|---|
| 1778067510 | 6.67° C | 76% | 1012.8 hPa | 0 mm | - | 78 W/m² | - |
| 1778067207 | 6.67° C | 81% | 1012.8 hPa | 0 mm | - | 60 W/m² | - |
| 1778066903 | 5° C | 83% | 1012.7 hPa | 0 mm | - | 52 W/m² | - |
| 1778066601 | 4.44° C | 84% | 1012.6 hPa | 0 mm | - | 42 W/m² | - |
| 1778066298 | 3.89° C | 85% | 1012.3 hPa | 0 mm | - | 32 W/m² | - |
| 1778065996 | 3.89° C | 85% | 1012.1 hPa | 0 mm | - | 25 W/m² | - |
| 1778065693 | 3.89° C | 84% | 1012.3 hPa | 0 mm | - | 16 W/m² | - |
| 1778065390 | 3.89° C | 84% | 1012.1 hPa | 0 mm | - | 13 W/m² | - |
| 1778065087 | 3.89° C | 84% | 1012.1 hPa | 0 mm | - | 11 W/m² | - |
| 1778064783 | 4.44° C | 83% | 1012 hPa | 0 mm | - | 10 W/m² | - |
| 1778064481 | 3.89° C | 83% | 1011.7 hPa | 0 mm | - | 9 W/m² | - |
| 1778064179 | 3.89° C | 82% | 1011.8 hPa | 0 mm | - | 6 W/m² | - |
| 1778063876 | 4.44° C | 82% | 1011.8 hPa | 0 mm | - | 3 W/m² | - |
| 1778063573 | 3.89° C | 82% | 1011.9 hPa | 0 mm | - | 3 W/m² | - |
| 1778063271 | 3.89° C | 85% | 1011.6 hPa | 0 mm | - | 1 W/m² | - |
| 1778062969 | 3.89° C | 84% | 1011.9 hPa | 0 mm | - | 0 W/m² | - |
| 1778062665 | 3.89° C | 84% | 1011.9 hPa | 0 mm | - | 0 W/m² | - |
| 1778062361 | 3.89° C | 84% | 1012 hPa | 0 mm | - | 0 W/m² | - |
| 1778062060 | 3.89° C | 85% | 1012.3 hPa | 0 mm | - | 0 W/m² | - |
| 1778061757 | 3.89° C | 86% | 1012 hPa | 0 mm | - | 0 W/m² | - |
| 1778061456 | 3.89° C | 86% | 1011.8 hPa | 0 mm | - | 0 W/m² | - |
| 1778061152 | 3.89° C | 87% | 1011.8 hPa | 0 mm | - | 0 W/m² | - |
| 1778060849 | 3.89° C | 87% | 1012 hPa | 0 mm | - | 0 W/m² | - |
| 1778060547 | 3.89° C | 85% | 1011.5 hPa | 0 mm | - | 0 W/m² | - |
| 1778060246 | 4.44° C | 84% | 1011.9 hPa | 0 mm | - | 0 W/m² | - |
* Rain latest hour (hover to see other rain measurements)
** Current wind speed in m/s (hover to see current wind gust speed)